This demonstration page uses our WeatherBlox Daily Observations layout. Learn more.

Left ArrowRight Arrow

39.08367, -84.50855

Hourly Observations for November 14, 2018

Temp ( °F °C ) Dew Point ( °F °C ) Humidity (%) Winds ( mph kmh ) Pressure ( in mb ) Visibility ( mi km ) Precip ( " mm )
12:53 am 00:53 Clear 28 -2.2 22 -5.6 78 78 Calm 30.51 1033 10 16 0.00 0.00
1:53 am 01:53 Clear 27 -2.8 22 -5.6 81 81 N 7 11 30.52 1033 9 14 0.00 0.00
2:53 am 02:53 Clear 26 -3.3 22 -5.6 84 84 N 6 9 30.52 1034 9 14 0.00 0.00
3:53 am 03:53 Clear 25 -3.9 20 -6.7 81 81 NE 5 7 30.53 1034 10 16 0.00 0.00
4:53 am 04:53 Clear 25 -3.9 20 -6.7 81 81 NNE 3 6 30.54 1034 10 16 0.00 0.00
5:53 am 05:53 Clear 24 -4.4 18 -7.8 77 77 NNE 5 7 30.55 1035 10 16 0.00 0.00
6:53 am 06:53 Clear 25 -3.9 18 -7.8 75 75 NNE 5 7 30.56 1035 10 16 0.00 0.00
7:53 am 07:53 Sunny 25 -3.9 19 -7.2 78 78 NE 3 6 30.58 1036 10 16 0.00 0.00
8:53 am 08:53 Sunny 27 -2.8 20 -6.7 75 75 NE 6 9 30.59 1036 10 16 0.00 0.00
9:53 am 09:53 Sunny 28 -2.2 20 -6.7 72 72 NE 10 17 30.60 1036 10 16 0.00 0.00
10:53 am 10:53 Sunny 30 -1.1 20 -6.7 66 66 NNE 9 15 30.60 1036 10 16 0.00 0.00
11:53 am 11:53 Sunny 31 -0.6 20 -6.7 64 64 ENE 9 15 30.59 1036 10 16 0.00 0.00
12:53 pm 12:53 Sunny 32 0 20 -6.7 61 61 NNE 12 19 30.55 1035 10 16 0.00 0.00
1:53 pm 13:53 Sunny 33 0.6 21 -6.1 61 61 NE 10 17 30.53 1034 10 16 0.00 0.00
2:53 pm 14:53 Sunny 33 0.6 20 -6.7 58 58 ENE 12 19 30.50 1033 10 16 0.00 0.00
3:53 pm 15:53 Sunny 33 0.6 20 -6.7 58 58 NE 12 19 30.49 1033 10 16 0.00 0.00
4:53 pm 16:53 Sunny 32 0 19 -7.2 59 59 NE 12 19 30.46 1032 10 16 0.00 0.00
5:53 pm 17:53 Clear 32 0 20 -6.7 61 61 NE 6 9 30.45 1031 10 16 0.00 0.00
6:53 pm 18:53 Mostly Clear 32 0 20 -6.7 61 61 NE 12 19 30.45 1031 10 16 0.00 0.00
7:53 pm 19:53 Mostly Cloudy 32 0 21 -6.1 64 64 ENE 12 19 30.43 1031 10 16 0.00 0.00
8:53 pm 20:53 Cloudy with Drizzle 32 0 22 -5.6 66 66 ENE 10 17 30.40 1029 10 16 0.00 0.03
9:38 pm 21:38 Cloudy with Light Freezing Drizzle 31 -0.6 25 -3.9 79 79 NE 9 15 30.39 1029 9 14 0.01 0.25
9:53 pm 21:53 Cloudy with Light Freezing Drizzle 31 -0.6 25 -3.9 79 79 NE 12 19 30.36 1028 9 14 0.02 0.51
10:53 pm 22:53 Cloudy with Light Freezing Drizzle 31 -0.6 27 -2.8 85 85 NE 7 11 30.35 1028 8 13 0.03 0.76
11:07 pm 23:07 Cloudy with Light Freezing Rain 31 -0.6 27 -2.8 85 85 NE 10 17 30.36 1028 7 11 0.00 0.03
11:53 pm 23:53 Cloudy with Freezing Rain 31 -0.6 27 -2.8 85 85 NE 12 19 30.32 1027 5 8 0.04 1.02

Powered by AerisWeather